Weather History for Simferopol, Ukraine

Change the Weather History Date:

Friday, February 8, 2013

  Actual Average Record
Temperature  
Mean Temperature 56 °F -  
Max Temperature 69 °F - - ()
Min Temperature 43 °F - - ()
Degree Days  
Heating Degree Days 9    
Growing Degree Days 6 (Base 50)    
Moisture  
Dew Point 37 °F    
Average Humidity 54    
Maximum Humidity 87    
Minimum Humidity 15    
Precipitation  
Precipitation 0.00 in - - ()
Sea Level Pressure  
Sea Level Pressure 29.78 in    
Wind  
Wind Speed 10 mph ()    
Max Wind Speed 20 mph    
Max Gust Speed 29 mph    
Visibility 5.8 miles    
Events      
T = Trace of Precipitation, MM = Missing Value Source: Averaged Metar Reports

Daily Weather History Graph

Daily Weather History Graph

Search for Another Location

Airport:

Trip Planner

Search our weather history database for the weather conditions in past years. The results will help you decide how hot, cold, wet, or windy it might be!

Date:

Astronomy

Feb. 08, 2013 Rise Set
Actual Time 6:55 AM EET 5:01 PM EET
Civil Twilight 6:24 AM EET 5:32 PM EET
Nautical Twilight 5:49 AM EET 6:07 PM EET
Astronomical Twilight 5:15 AM EET 6:41 PM EET
Moon 5:10 AM EET (2/8) 3:09 PM EET (2/8)
Length of Visible Light 11h 08m
Length of Day
10h 06m
Waning Crescent, 5% of the Moon is Illuminated
Feb 8
Waning Crescent
Feb 10
New
Feb 17
First Quarter
Feb 25
Full
Mar 4
Last Quarter

Hourly Weather History & Observations

Time (EET) Temp. Windchill Dew Point Humidity Pressure Visibility Wind Dir Wind Speed Gust Speed Precip Events Conditions
12:00 AM 53.6 °F - 37.4 °F 54% 29.77 in - ESE 11.2 mph - N/A   Clear
12:30 AM 55.4 °F - 37.4 °F 51% 29.77 in - ESE 11.2 mph - N/A   Clear
1:00 AM 55.4 °F - 37.4 °F 51% 29.74 in - ESE 11.2 mph - N/A   Clear
1:30 AM 53.6 °F - 35.6 °F 51% 29.74 in - East 8.9 mph - N/A   Clear
2:00 AM 51 °F - 34 °F 39% 29.77 in 6 mi South 4.5 mph - -   Partly Cloudy
2:00 AM 51.8 °F - 37.4 °F 58% 29.74 in - ESE 8.9 mph - N/A   Clear
2:30 AM 51.8 °F - 39.2 °F 62% 29.74 in - SSE 8.9 mph - N/A   Clear
3:00 AM 53.6 °F - 37.4 °F 54% 29.74 in - South 13.4 mph - N/A   Clear
3:30 AM 57.2 °F - 37.4 °F 48% 29.74 in 6.2 mi SSE 15.7 mph - N/A   Mostly Cloudy
4:00 AM 55.4 °F - 39.2 °F 54% 29.74 in 6.2 mi SSE 13.4 mph - N/A   Mostly Cloudy
4:30 AM 53.6 °F - 39.2 °F 58% 29.77 in 6.2 mi South 11.2 mph - N/A   Overcast
4:33 AM 53.6 °F - 39.2 °F 58% 29.77 in 6.2 mi West 15.7 mph - N/A   Overcast
5:00 AM 51 °F - 40 °F 55% 29.80 in 6 mi Calm Calm - -   Scattered Clouds
5:00 AM 51.8 °F - 39.2 °F 62% 29.77 in 6.2 mi WNW 4.5 mph - N/A   Mostly Cloudy
5:30 AM 48.2 °F - 39.2 °F 71% 29.77 in 6.2 mi NNW 6.7 mph - N/A   Mostly Cloudy
6:00 AM 46.4 °F 43.0 °F 41.0 °F 81% 29.77 in - NE 6.7 mph - N/A   Clear
6:30 AM 44.6 °F 39.8 °F 39.2 °F 81% 29.77 in - East 8.9 mph - N/A   Clear
7:00 AM 44.6 °F 38.9 °F 41.0 °F 87% 29.77 in - East 11.2 mph - N/A   Clear
7:30 AM 48.2 °F - 41.0 °F 76% 29.77 in - East 13.4 mph - N/A   Clear
8:00 AM 49 °F - 41 °F 64% 29.81 in 6 mi East 11.2 mph - -   Partly Cloudy
8:00 AM 50.0 °F - 42.8 °F 76% 29.80 in - East 11.2 mph - N/A   Clear
8:30 AM 51.8 °F - 42.8 °F 71% 29.80 in - East 6.7 mph - N/A   Clear
9:00 AM 62.6 °F - 41.0 °F 45% 29.80 in - SE 8.9 mph - N/A   Clear
9:30 AM 64.4 °F - 39.2 °F 40% 29.80 in - South 13.4 mph - N/A   Clear
10:00 AM 64.4 °F - 37.4 °F 37% 29.80 in - South 11.2 mph - N/A   Clear
10:30 AM 64.4 °F - 39.2 °F 40% 29.80 in - South 11.2 mph - N/A   Clear
11:00 AM 67 °F - 37 °F 22% 29.79 in 6 mi South 13.4 mph - -   Scattered Clouds
11:00 AM 66.2 °F - 37.4 °F 35% 29.80 in - South 13.4 mph - N/A   Clear
11:30 AM 68.0 °F - 35.6 °F 30% 29.77 in - SSW 13.4 mph - N/A   Clear
12:00 PM 68.0 °F - 35.6 °F 30% 29.77 in - SSW 20.1 mph - N/A   Clear
12:30 PM 68.0 °F - 35.6 °F 30% 29.77 in - SSW 17.9 mph - N/A   Clear
12:55 PM 68.0 °F - 33.8 °F 28% 29.77 in - SSW 17.9 mph 29.1 mph N/A   Clear
1:00 PM 68.0 °F - 33.8 °F 28% 29.77 in 6.2 mi SSW 20.1 mph - N/A   Scattered Clouds
1:30 PM 68.0 °F - 32.0 °F 26% 29.77 in 6.2 mi South 15.7 mph - N/A   Scattered Clouds
2:00 PM 69 °F - 32 °F 15% 29.78 in 6 mi SSW 13.4 mph - -   Scattered Clouds
2:00 PM 68.0 °F - 32.0 °F 26% 29.77 in - SW 15.7 mph - N/A   Clear
2:30 PM 68.0 °F - 30.2 °F 24% 29.77 in - SSW 15.7 mph - N/A   Clear
3:00 PM 68.0 °F - 32.0 °F 26% 29.77 in - SSW 13.4 mph - N/A   Clear
3:30 PM 66.2 °F - 32.0 °F 28% 29.77 in - SSW 11.2 mph - N/A   Clear
4:00 PM 66.2 °F - 32.0 °F 28% 29.77 in - SW 6.7 mph - N/A   Clear
4:23 PM 62.6 °F - 33.8 °F 34% 29.77 in - WNW 13.4 mph - N/A   Clear
4:30 PM 59.0 °F - 39.2 °F 48% 29.77 in - WNW 11.2 mph - N/A   Clear
5:00 PM 56 °F - 37 °F 38% 29.80 in 6 mi WNW 8.9 mph - -   Scattered Clouds
5:00 PM 55.4 °F - 39.2 °F 54% 29.77 in 3.1 mi West 6.7 mph - N/A   Smoke
5:30 PM 51.8 °F - 39.2 °F 62% 29.80 in - NW 6.7 mph - N/A   Clear
6:00 PM 50.0 °F - 39.2 °F 66% 29.80 in - East 6.7 mph - N/A   Clear
6:30 PM 48.2 °F - 39.2 °F 71% 29.80 in - East 4.5 mph - N/A   Smoke
7:00 PM 46.4 °F 43.0 °F 37.4 °F 71% 29.80 in - ENE 6.7 mph - N/A   Smoke
7:30 PM 44.6 °F 40.8 °F 37.4 °F 76% 29.80 in 3.1 mi NE 6.7 mph - N/A   Smoke
8:00 PM 46 °F - 39 °F 68% 29.83 in 6 mi ENE 6.7 mph - -  
8:00 PM 44.6 °F 40.8 °F 37.4 °F 76% 29.80 in - ENE 6.7 mph - N/A   Clear
8:30 PM 44.6 °F 39.8 °F 39.2 °F 81% 29.80 in - ENE 8.9 mph - N/A   Clear
9:00 PM 44.6 °F 40.8 °F 39.2 °F 81% 29.77 in - ENE 6.7 mph - N/A   Clear
9:30 PM 44.6 °F 40.8 °F 39.2 °F 81% 29.77 in - ENE 6.7 mph - N/A   Clear
10:00 PM 44.6 °F 42.3 °F 37.4 °F 76% 29.77 in - ENE 4.5 mph - N/A   Clear
10:30 PM 44.6 °F 42.3 °F 37.4 °F 76% 29.77 in - East 4.5 mph - N/A   Clear
11:00 PM 44 °F - 37 °F 69% 29.80 in 6 mi East 6.7 mph - -  
11:00 PM 46.4 °F 44.4 °F 39.2 °F 76% 29.77 in - ESE 4.5 mph - N/A   Clear
11:30 PM 46.4 °F 44.4 °F 37.4 °F 71% 29.77 in - ESE 4.5 mph - N/A   Clear